AMOS-17

Last updated on Sun Jun 21 2026 00:03:08 GMT+0000 (Coordinated Universal Time)

1 44479U 19050A 26171.32409470 .00000105 00000+0 00000+0 0 9993 2 44479 0.0218 319.1911 0001926 166.1374 276.8959 1.00274444 25214
UTC large
Height (km)
Speed (km/s)
/
Latitude / Longitude
Inclination (degrees)
Orbital Period (minutes)
Azimuth
Elevation
Range (km)
Doppler Factor

Next 0 passes for location: London (51.5072 / 0.1276)

No passes found over London.
AMOS-17